Time[GMT],current_speed[cm/s](2m),current_direction[angular_degrees](2m),temperature[C](2m),current_u[cm/s](2m),current_v[cm/s](2m)
2014-05-30 15:00,98.55,313.4,7.82,-71.59,67.72
2014-05-30 17:00,22.00,42.7,7.88,14.91,16.17
2014-05-30 18:00,28.16,126.4,8.20,22.68,-16.69
2014-05-30 21:00,65.70,194.6,8.07,-16.52,-63.59
2014-05-30 22:00,63.65,226.9,8.04,-46.48,-43.48
2014-05-30 23:00,76.55,247.0,8.11,-70.44,-29.97
2014-05-31 00:00,100.02,270.5,7.60,-100.01,0.89
2014-05-31 01:00,131.69,269.5,7.50,-131.69,-1.25
2014-05-31 02:00,143.13,286.0,7.53,-137.60,39.41
2014-05-31 03:00,124.65,306.0,7.53,-100.82,73.31
2014-05-31 04:00,72.45,326.4,7.27,-40.07,60.35
2014-05-31 05:00,32.85,324.3,7.53,-19.17,26.68
2014-05-31 06:00,25.22,74.0,7.69,24.24,6.97
2014-05-31 07:00,44.29,113.7,7.56,40.55,-17.80
2014-05-31 09:00,,,,,
2014-05-31 10:00,46.63,218.1,7.21,-28.79,-36.69
2014-05-31 11:00,39.30,249.4,7.21,-36.79,-13.82
2014-05-31 12:00,66.29,270.5,7.24,-66.28,0.59
2014-05-31 13:00,95.91,284.6,7.21,-92.82,24.14
2014-05-31 14:00,114.39,302.9,7.27,-96.09,62.06
2014-05-31 15:00,113.21,314.8,7.18,-80.31,79.79
2014-05-31 16:00,73.91,325.7,7.08,-41.64,61.07
2014-05-31 17:00,44.87,311.6,7.82,-33.53,29.82
2014-05-31 18:00,10.56,335.9,7.85,-4.31,9.64
2014-05-31 19:00,,,,,
2014-05-31 20:00,,,,,
2014-05-31 21:00,,,,,
2014-05-31 22:00,52.21,231.1,7.05,-40.65,-32.76
2014-05-31 23:00,53.67,247.3,7.08,-49.52,-20.71
2014-06-01 00:00,68.34,268.4,7.63,-68.31,-1.91
2014-06-01 01:00,92.98,281.8,7.31,-91.02,18.95
2014-06-01 02:00,114.97,286.0,7.60,-110.53,31.66
2014-06-01 03:00,127.29,300.0,7.44,-110.19,63.74
2014-06-01 04:00,97.08,313.8,7.79,-70.12,67.14
2014-06-01 05:00,70.39,309.9,7.72,-54.01,45.14
2014-06-01 06:00,25.81,12.8,7.72,5.71,25.17
2014-06-01 07:00,,,,,
2014-06-01 08:00,,,,,
2014-06-01 09:00,,,,,
2014-06-01 10:00,33.73,205.1,7.76,-14.32,-30.54
2014-06-01 11:00,41.36,232.5,7.69,-32.83,-25.15
2014-06-01 12:00,62.47,253.6,7.47,-59.94,-17.60
2014-06-01 13:00,65.11,275.1,7.50,-64.86,5.77
2014-06-01 14:00,96.50,286.7,7.56,-92.43,27.71
2014-06-01 15:00,104.41,292.3,7.60,-96.60,39.64
2014-06-01 16:00,100.60,311.3,7.72,-75.58,66.39
2014-06-01 18:00,,,,,
2014-06-01 19:00,,,,,
2014-06-01 20:00,48.98,110.9,7.72,45.76,-17.46
2014-06-01 21:00,38.13,140.4,7.72,24.29,-29.39
2014-06-01 22:00,28.74,180.2,7.76,-0.08,-28.74
2014-06-01 23:00,51.03,165.4,7.72,12.88,-49.38
2014-06-02 00:00,49.57,203.0,7.91,-19.37,-45.63
2014-06-02 01:00,56.31,244.8,7.76,-50.97,-23.94
2014-06-02 02:00,59.54,277.5,7.91,-59.02,7.82
2014-06-02 03:00,60.71,290.2,7.88,-56.98,20.97
2014-06-02 04:00,67.17,297.9,7.91,-59.34,31.47
2014-06-02 05:00,116.44,308.1,7.98,-91.59,71.90
2014-06-02 06:00,78.02,315.9,8.11,-54.32,56.00
2014-06-02 08:00,32.85,59.6,8.11,28.32,16.65
2014-06-02 09:00,47.22,88.7,8.11,47.21,1.04
2014-06-02 10:00,43.99,121.4,7.88,37.54,-22.94
2014-06-02 13:00,23.17,234.3,8.11,-18.82,-13.52
2014-06-02 14:00,36.08,290.6,8.11,-33.78,12.67
2014-06-02 15:00,46.05,290.9,8.30,-43.02,16.43
2014-06-02 16:00,81.24,303.9,8.74,-67.42,45.33
2014-06-02 17:00,68.93,319.0,9.22,-45.19,52.04
2014-06-02 18:00,42.53,322.5,9.19,-25.86,33.76
2014-06-02 19:00,10.27,0.8,9.12,0.15,10.26
2014-06-02 20:00,,,,,
2014-06-02 21:00,42.24,146.7,8.30,23.16,-35.32
2014-06-02 22:00,,,,,
2014-06-02 23:00,37.54,172.1,8.43,5.18,-37.18
2014-06-03 00:00,40.48,219.2,9.03,-25.57,-31.38
2014-06-03 01:00,63.65,246.6,8.58,-58.41,-25.27
2014-06-03 02:00,94.15,264.2,8.36,-93.66,-9.54
2014-06-03 03:00,114.09,265.2,8.39,-113.70,-9.47
2014-06-03 04:00,112.33,282.1,8.62,-109.83,23.58
2014-06-03 05:00,86.52,307.4,8.90,-68.71,52.59
2014-06-03 06:00,74.79,321.1,8.74,-46.92,58.24
2014-06-03 08:00,37.84,26.5,9.03,16.88,33.86
2014-06-03 09:00,39.89,94.4,9.09,39.77,-3.03
2014-06-03 10:00,34.90,124.9,8.71,28.61,-19.99
2014-06-03 12:00,24.64,185.8,8.87,-2.48,-24.51
2014-06-03 13:00,32.26,231.5,9.12,-25.24,-20.09
2014-06-03 14:00,49.57,267.0,9.16,-49.50,-2.60
2014-06-03 15:00,68.05,279.7,9.19,-67.08,11.41
2014-06-03 16:00,76.55,288.4,9.35,-72.62,24.22
2014-06-03 17:00,72.15,323.3,8.23,-43.17,57.81
2014-06-03 18:00,62.77,313.1,8.39,-45.86,42.85
2014-06-03 19:00,46.63,322.5,8.58,-28.36,37.02
2014-06-03 20:00,33.73,333.8,8.55,-14.89,30.26
2014-06-03 21:00,8.51,329.9,8.55,-4.26,7.36
2014-06-03 22:00,21.70,99.3,8.62,21.42,-3.50
2014-06-03 23:00,22.29,134.4,8.71,15.91,-15.61
2014-06-04 01:00,16.13,259.6,8.58,-15.87,-2.91
2014-06-04 02:00,40.18,286.0,8.71,-38.63,11.06
2014-06-04 03:00,49.27,290.9,8.55,-46.03,17.58
2014-06-04 04:00,61.30,295.1,8.49,-55.50,26.03
2014-06-04 05:00,56.61,287.7,8.30,-53.92,17.25
2014-06-04 06:00,50.15,304.6,8.36,-41.28,28.49
2014-06-04 07:00,51.33,304.6,8.36,-42.24,29.16
2014-06-04 08:00,12.91,357.7,8.33,-0.52,12.89
2014-06-04 09:00,7.04,119.0,8.33,6.16,-3.41
2014-06-04 10:00,38.13,107.7,8.11,36.32,-11.61
2014-06-04 11:00,52.79,133.4,8.30,38.37,-36.27
2014-06-04 13:00,17.60,183.3,8.49,-1.02,-17.57
2014-06-04 14:00,12.03,244.1,8.65,-10.82,-5.24
2014-06-04 15:00,32.56,261.7,8.74,-32.22,-4.69
2014-06-04 16:00,50.15,277.5,8.87,-49.72,6.58
2014-06-04 17:00,56.02,283.2,8.71,-54.55,12.76
2014-06-04 18:00,86.52,309.2,9.41,-67.06,54.67
2014-06-04 19:00,69.22,310.9,9.60,-52.28,45.36
2014-06-04 20:00,31.09,309.9,9.85,-23.85,19.94
2014-06-04 21:00,,,,,
2014-06-04 22:00,,,,,
2014-06-05 01:00,19.36,205.5,9.57,-8.32,-17.48
2014-06-05 02:00,19.65,238.9,9.41,-16.82,-10.16
2014-06-05 03:00,48.10,256.1,8.87,-46.69,-11.56
2014-06-05 04:00,69.22,275.1,8.71,-68.95,6.13
2014-06-05 05:00,78.02,274.0,8.43,-77.83,5.48
2014-06-05 06:00,99.72,286.0,10.17,-95.87,27.46
2014-06-05 07:00,81.54,310.9,13.61,-61.59,53.44
2014-06-05 08:00,52.79,307.1,13.89,-42.12,31.83
2014-06-05 09:00,25.81,336.6,13.67,-10.25,23.69
2014-06-05 10:00,,,,,
2014-06-05 11:00,47.51,108.1,13.01,45.17,-14.74
2014-06-05 12:00,,,,,
2014-06-05 13:00,,,,,
2014-06-05 14:00,35.78,218.5,12.82,-22.26,-28.01
2014-06-05 15:00,43.12,252.2,12.92,-41.06,-13.16
2014-06-05 16:00,67.75,273.0,12.57,-67.66,3.51
2014-06-05 17:00,80.66,283.5,10.68,-78.42,18.86
2014-06-05 18:00,82.12,283.5,10.33,-79.85,19.20
2014-06-05 19:00,78.02,312.4,10.08,-57.66,52.56
2014-06-05 20:00,56.90,319.4,9.92,-37.04,43.19
2014-06-05 21:00,41.36,306.4,9.89,-33.30,24.53
2014-06-05 22:00,25.22,311.6,9.89,-18.85,16.76
2014-06-06 02:00,,,,,
2014-06-06 04:00,21.12,304.6,10.49,-17.38,12.00
2014-06-06 05:00,27.86,320.8,10.68,-17.61,21.59
2014-06-06 06:00,,,,,
2014-06-06 07:00,,,,,
2014-06-06 08:00,4.99,41.6,10.77,3.31,3.73
2014-06-06 09:00,9.68,143.6,10.96,5.75,-7.79
2014-06-06 10:00,23.17,147.1,10.96,12.59,-19.45
2014-06-06 12:00,59.54,133.7,11.34,43.02,-41.16
2014-06-06 13:00,,,,,
2014-06-06 14:00,,,,,
2014-06-06 15:00,31.09,198.8,12.35,-10.01,-29.43
2014-06-06 16:00,29.04,258.9,12.10,-28.49,-5.59
2014-06-06 17:00,45.46,280.4,12.54,-44.72,8.17
2014-06-06 18:00,55.14,290.9,12.32,-51.51,19.67
2014-06-06 19:00,60.71,309.9,11.12,-46.58,38.94
2014-06-06 21:00,,,,,
2014-06-06 22:00,20.53,9.3,10.27,3.31,20.26
2014-06-06 23:00,22.88,76.1,10.08,22.21,5.50
2014-06-07 00:00,,,,,
2014-06-07 01:00,37.54,128.1,10.30,29.54,-23.17
2014-06-07 02:00,,,,,
2014-06-07 04:00,35.20,217.8,11.37,-21.56,-27.82
2014-06-07 05:00,51.62,239.2,10.90,-44.35,-26.42
2014-06-07 06:00,58.07,269.5,10.65,-58.07,-0.55
2014-06-07 07:00,71.86,278.6,12.13,-71.05,10.74
2014-06-07 08:00,73.91,291.6,10.74,-68.72,27.22
2014-06-07 09:00,58.66,298.6,10.96,-51.48,28.12
2014-06-07 10:00,41.06,304.3,10.74,-33.94,23.12
2014-06-07 12:00,,,,,
2014-06-07 13:00,,,,,
2014-06-07 14:00,21.12,111.2,10.42,19.68,-7.65
2014-06-07 15:00,,,,,
2014-06-07 16:00,12.61,118.3,10.46,11.11,-5.97
2014-06-07 17:00,12.32,211.1,10.58,-6.36,-10.55
2014-06-07 18:00,30.21,272.3,10.87,-30.19,1.20
2014-06-07 19:00,40.18,277.5,10.84,-39.83,5.28
2014-06-07 20:00,83.88,285.6,10.14,-80.78,22.60
2014-06-07 21:00,86.82,299.3,9.73,-75.68,42.54
2014-06-07 22:00,63.65,319.7,9.95,-41.14,48.57
2014-06-08 00:00,13.20,33.9,10.65,7.36,10.96
2014-06-08 01:00,14.08,106.7,10.68,13.49,-4.04
2014-06-08 02:00,18.48,109.5,10.68,17.42,-6.16
2014-06-08 03:00,14.96,100.3,10.68,14.72,-2.68
2014-06-08 04:00,8.51,144.3,10.61,4.96,-6.91
2014-06-08 05:00,4.69,282.5,10.61,-4.58,1.01
2014-06-08 06:00,15.54,294.4,10.65,-14.15,6.43
2014-06-08 07:00,84.18,286.0,8.23,-80.92,23.18
2014-06-08 08:00,93.56,295.8,7.69,-84.22,40.76
2014-06-08 09:00,89.46,301.1,7.69,-76.60,46.21
2014-06-08 10:00,66.58,311.6,8.97,-49.75,44.25
2014-06-08 12:00,22.88,20.5,10.01,8.02,21.43
2014-06-08 13:00,22.00,66.2,10.30,20.13,8.87
2014-06-08 14:00,17.30,81.0,10.39,17.09,2.71
2014-06-08 15:00,23.17,92.3,10.42,23.15,-0.91
2014-06-08 16:00,32.85,189.6,9.73,-5.50,-32.39
2014-06-08 17:00,44.87,249.8,8.27,-42.11,-15.52
2014-06-08 18:00,62.47,279.7,8.52,-61.59,10.48
2014-06-08 19:00,89.75,288.8,8.87,-84.96,28.92
2014-06-08 20:00,93.56,294.8,9.09,-84.95,39.20
2014-06-08 21:00,83.30,310.6,9.60,-63.25,54.20
2014-06-08 22:00,87.40,313.8,10.52,-63.13,60.45
2014-06-08 23:00,,,,,
2014-06-09 01:00,18.77,49.4,11.72,14.24,12.23
2014-06-09 02:00,21.41,78.2,11.21,20.96,4.38
2014-06-09 03:00,26.10,102.4,10.93,25.49,-5.63
2014-06-09 04:00,27.57,96.5,11.78,27.39,-3.11
2014-06-09 05:00,27.86,138.7,10.90,18.40,-20.92
2014-06-09 06:00,64.53,255.4,10.27,-62.44,-16.27
2014-06-09 07:00,80.66,279.0,9.98,-79.68,12.55
2014-06-09 08:00,80.36,292.3,10.39,-74.35,30.51
2014-06-09 09:00,87.11,302.9,10.58,-73.17,47.26
2014-06-09 10:00,83.88,309.9,11.47,-64.36,53.80
2014-06-09 11:00,62.47,324.3,12.07,-36.45,50.74
2014-06-09 13:00,15.54,23.3,10.99,6.16,14.27
2014-06-09 14:00,21.12,63.8,11.34,18.94,9.33
2014-06-09 15:00,29.92,66.9,12.00,27.53,11.72
2014-06-09 16:00,,,,,
2014-06-09 17:00,,,,,
2014-06-09 18:00,31.97,124.9,12.22,26.20,-18.31
2014-06-09 19:00,,,,,
2014-06-09 20:00,37.25,261.7,12.88,-36.86,-5.36
2014-06-09 21:00,47.81,283.5,12.32,-46.48,11.18
2014-06-09 22:00,45.46,288.8,12.07,-43.04,14.65
2014-06-09 23:00,47.22,281.8,12.13,-46.23,9.63
2014-06-10 00:00,32.26,292.0,11.78,-29.92,12.06
2014-06-10 01:00,14.37,292.3,11.56,-13.30,5.46
2014-06-10 03:00,14.66,46.2,11.85,10.58,10.15
2014-06-10 04:00,,,,,
2014-06-10 05:00,18.77,70.5,11.62,17.69,6.28
2014-06-10 06:00,19.06,40.2,11.59,12.31,14.56
2014-06-10 08:00,42.82,326.4,11.88,-23.69,35.67
2014-06-10 09:00,40.48,332.7,11.75,-18.54,35.98
2014-06-10 10:00,27.86,327.5,11.85,-14.98,23.49
2014-06-10 11:00,27.57,306.0,11.88,-22.30,16.21
2014-06-10 13:00,18.48,358.4,11.09,-0.52,18.47
2014-06-10 14:00,7.92,340.8,10.99,-2.60,7.48
2014-06-10 15:00,13.79,76.1,10.49,13.38,3.32
2014-06-10 16:00,19.36,108.1,10.39,18.40,-6.01
2014-06-10 17:00,20.24,102.1,10.71,19.79,-4.24
2014-06-10 19:00,,,,,
2014-06-10 20:00,48.98,344.3,11.34,-13.25,47.16
2014-06-10 22:00,59.83,327.1,11.56,-32.48,50.25
2014-06-10 23:00,,,,,
2014-06-11 00:00,42.53,316.2,11.81,-29.43,30.71
2014-06-11 02:00,19.36,311.3,11.59,-14.54,12.78
2014-06-11 04:00,,,,,
2014-06-11 05:00,24.34,120.4,11.66,21.00,-12.31
2014-06-11 06:00,,,,,
2014-06-11 07:00,13.79,263.5,11.81,-13.70,-1.57
2014-06-11 08:00,27.86,308.8,11.78,-21.70,17.47
2014-06-11 09:00,44.29,315.5,11.72,-31.03,31.60
2014-06-11 10:00,69.22,312.0,10.99,-51.44,46.32
2014-06-11 11:00,85.35,301.8,10.96,-72.54,44.98
2014-06-11 12:00,80.95,309.5,10.17,-62.43,51.53
2014-06-11 13:00,58.66,325.0,9.76,-33.64,48.06
2014-06-11 15:00,50.45,23.3,9.73,19.98,46.32
2014-06-11 16:00,71.27,55.0,9.85,58.37,40.90
2014-06-11 17:00,71.57,80.3,10.52,70.54,12.06
2014-06-11 18:00,65.11,84.9,10.99,64.85,5.83
2014-06-11 19:00,,,,,
2014-06-11 20:00,,,,,
2014-06-11 21:00,25.52,254.3,11.62,-24.57,-6.89
2014-06-11 22:00,55.14,277.5,11.18,-54.66,7.24
2014-06-11 23:00,76.84,288.8,10.87,-72.75,24.76
2014-06-12 00:00,76.84,296.2,11.50,-68.96,33.90
2014-06-12 01:00,63.94,293.4,10.77,-58.70,25.36
2014-06-12 02:00,39.30,307.4,10.68,-31.21,23.89
2014-06-12 04:00,2.05,347.8,11.06,-0.43,2.01
2014-06-12 05:00,19.36,66.9,10.87,17.81,7.58
2014-06-12 06:00,48.10,66.9,10.74,44.26,18.84
2014-06-12 07:00,38.13,87.3,10.55,38.09,1.78
2014-06-12 08:00,14.66,88.7,10.80,14.66,0.32
2014-06-12 09:00,17.60,306.7,11.40,-14.10,10.52
2014-06-12 10:00,65.70,302.2,10.77,-55.62,34.97
2014-06-12 11:00,63.65,308.5,10.01,-49.82,39.61
2014-06-12 12:00,69.81,309.5,10.39,-53.83,44.44
2014-06-12 13:00,62.47,310.6,10.36,-47.44,40.65
2014-06-12 14:00,64.82,319.0,10.52,-42.50,48.94
2014-06-12 15:00,15.54,324.7,9.63,-8.99,12.68
2014-06-12 16:00,10.56,93.7,9.47,10.54,-0.67
2014-06-12 17:00,18.77,143.2,9.63,11.24,-15.04
2014-06-12 18:00,22.58,130.6,10.11,17.15,-14.69
2014-06-12 19:00,12.61,338.7,10.90,-4.58,11.75
2014-06-12 20:00,18.18,320.4,10.71,-11.58,14.02
2014-06-12 21:00,37.25,309.9,10.74,-28.58,23.89
2014-06-12 22:00,56.90,310.9,10.08,-42.98,37.29
2014-06-12 23:00,94.44,304.6,10.61,-77.72,53.65
2014-06-13 00:00,120.55,312.7,10.27,-88.59,81.76
2014-06-13 01:00,86.82,318.3,10.14,-57.72,64.85
2014-06-13 02:00,,,,,
2014-06-13 03:00,38.13,8.6,10.74,5.68,37.70
2014-06-13 04:00,46.34,65.5,10.46,42.18,19.20
2014-06-13 05:00,41.06,105.3,9.19,39.61,-10.81
2014-06-13 06:00,51.03,92.3,10.04,50.99,-2.00
2014-06-13 07:00,39.89,93.7,9.41,39.81,-2.54
2014-06-13 08:00,34.61,79.6,9.95,34.04,6.25
2014-06-13 09:00,17.89,36.3,10.71,10.60,14.41
2014-06-13 10:00,19.94,313.8,10.65,-14.40,13.79
2014-06-13 11:00,56.02,301.1,10.23,-47.97,28.94
2014-06-13 12:00,83.30,303.6,9.95,-69.41,46.05
2014-06-13 13:00,87.70,307.1,10.17,-69.97,52.87
2014-06-13 14:00,79.19,335.6,9.79,-32.77,72.09
2014-06-13 16:00,48.98,19.1,10.17,16.04,46.28
2014-06-13 17:00,25.52,50.4,9.98,19.66,16.26
2014-06-13 18:00,28.74,69.7,10.33,26.97,9.95
2014-06-13 19:00,30.80,79.6,10.33,30.29,5.56
2014-06-13 20:00,53.38,89.1,10.80,53.37,0.85
2014-06-13 21:00,11.44,120.7,11.25,9.83,-5.85
2014-06-13 22:00,12.32,308.1,11.06,-9.69,7.61
2014-06-13 23:00,62.18,287.7,10.90,-59.22,18.95
2014-06-14 00:00,84.18,299.3,10.39,-73.38,41.25
2014-06-14 01:00,95.62,316.2,9.92,-66.16,69.03
2014-06-14 02:00,85.94,321.5,10.01,-53.50,67.25
2014-06-14 03:00,,,,,
2014-06-14 05:00,,,,,
2014-06-14 06:00,,,,,
2014-06-14 07:00,38.42,103.9,10.08,37.30,-9.20
2014-06-14 08:00,44.87,101.4,9.95,43.99,-8.86
2014-06-14 09:00,54.26,93.7,10.14,54.15,-3.46
2014-06-14 10:00,,,,,
2014-06-14 11:00,26.69,293.4,10.27,-24.50,10.59
2014-06-14 12:00,43.99,307.1,10.30,-35.10,26.52
2014-06-14 13:00,63.06,316.2,10.01,-43.63,45.53
2014-06-14 14:00,66.87,300.4,9.85,-57.68,33.84
2014-06-14 15:00,52.21,284.2,9.95,-50.61,12.83
2014-06-14 16:00,34.90,303.2,10.23,-29.20,19.12
2014-06-14 17:00,9.97,7.9,10.04,1.36,9.88
2014-06-14 21:00,8.80,211.4,10.42,-4.59,-7.51
2014-06-14 23:00,26.40,340.8,10.71,-8.67,24.93
2014-06-15 00:00,35.20,299.0,10.71,-30.79,17.06
2014-06-15 01:00,75.96,288.8,9.79,-71.91,24.47
2014-06-15 02:00,83.88,299.0,9.44,-73.37,40.66
2014-06-15 03:00,57.78,306.0,10.33,-46.73,33.98
2014-06-15 04:00,,,,,
2014-06-15 05:00,9.68,5.4,10.46,0.91,9.64
2014-06-15 06:00,33.14,107.7,10.61,31.57,-10.09
2014-06-15 07:00,,,,,
2014-06-15 09:00,40.48,140.1,10.27,25.98,-31.04
2014-06-15 10:00,16.42,155.9,9.76,6.71,-14.99
2014-06-15 12:00,37.84,304.3,10.30,-31.27,21.30
2014-06-15 13:00,49.86,324.7,10.20,-28.84,40.67
2014-06-15 14:00,67.75,307.8,10.68,-53.55,41.51
2014-06-15 15:00,79.19,319.0,10.27,-51.92,59.80
2014-06-15 16:00,52.50,331.3,10.65,-25.18,46.07
2014-06-15 17:00,16.42,24.4,10.58,6.78,14.96
2014-06-15 18:00,35.20,95.4,10.84,35.04,-3.32
2014-06-15 19:00,,,,,
2014-06-15 22:00,,,,,
2014-06-15 23:00,,,,,
2014-06-16 00:00,,,,,
2014-06-16 01:00,52.79,277.5,10.14,-52.34,6.93
2014-06-16 02:00,90.04,290.2,10.08,-84.50,31.09
2014-06-16 03:00,98.26,309.2,9.54,-76.16,62.08
2014-06-16 04:00,83.00,300.4,9.63,-71.59,42.00
2014-06-16 05:00,54.55,336.3,10.11,-21.96,49.94
2014-06-16 06:00,29.04,21.2,9.98,10.51,27.07
2014-06-16 07:00,36.66,85.6,10.08,36.55,2.83
2014-06-16 08:00,,,,,
2014-06-16 09:00,,,,,
2014-06-16 10:00,50.45,125.7,10.20,40.99,-29.40
2014-06-16 12:00,,,,,
2014-06-16 13:00,26.69,257.9,10.04,-26.09,-5.62
2014-06-16 14:00,48.39,271.9,9.95,-48.37,1.62
2014-06-16 15:00,134.92,294.1,9.76,-123.19,55.02
2014-06-16 16:00,111.45,313.4,9.25,-80.97,76.59
2014-06-16 17:00,69.22,324.0,10.11,-40.73,55.97
2014-06-16 18:00,31.38,2.9,10.39,1.61,31.34
2014-06-16 19:00,,,,,
2014-06-16 20:00,,,,,
2014-06-16 21:00,50.15,139.4,9.82,32.66,-38.06
2014-06-16 23:00,33.44,125.7,9.70,27.17,-19.49
2014-06-17 00:00,,,,,
2014-06-17 01:00,41.65,250.5,9.70,-39.25,-13.92
2014-06-17 02:00,90.34,293.7,9.70,-82.71,36.34
2014-06-17 03:00,133.45,305.0,9.25,-109.36,76.49
2014-06-17 04:00,,,,,
2014-06-17 06:00,42.82,31.4,10.55,22.33,36.54
2014-06-17 07:00,49.86,85.9,10.46,49.73,3.55
2014-06-17 08:00,,,,,
2014-06-17 09:00,72.74,131.3,9.98,54.66,-47.99
2014-06-17 10:00,61.30,146.4,9.57,33.93,-51.06
2014-06-17 12:00,26.98,170.0,9.35,4.71,-26.57
2014-06-17 13:00,39.60,314.8,9.22,-28.09,27.91
2014-06-17 14:00,37.54,323.3,9.28,-22.46,30.08
2014-06-17 15:00,110.28,302.5,10.04,-93.00,59.27
2014-06-17 16:00,103.83,317.6,10.42,-69.98,76.70
2014-06-17 17:00,75.38,333.4,11.06,-33.69,67.43
2014-06-17 19:00,45.46,30.0,11.69,22.74,39.36
2014-06-17 20:00,44.29,72.9,11.53,42.33,13.01
2014-06-17 21:00,56.02,109.5,11.85,52.81,-18.68
2014-06-17 22:00,69.51,132.3,11.25,51.39,-46.81
2014-06-17 23:00,61.59,145.7,11.25,34.71,-50.88
2014-06-18 01:00,30.21,225.5,10.46,-21.55,-21.17
2014-06-18 02:00,52.21,274.0,10.39,-52.08,3.67
2014-06-18 03:00,66.29,286.0,10.96,-63.72,18.25
2014-06-18 04:00,82.42,303.6,11.25,-68.68,45.56
2014-06-18 05:00,96.20,312.7,11.28,-70.70,65.25
2014-06-18 06:00,72.15,318.7,10.99,-47.64,54.19
2014-06-18 07:00,,,,,
2014-06-18 08:00,37.84,14.9,11.21,9.73,36.56
2014-06-18 09:00,37.54,63.1,11.44,33.47,17.00
2014-06-18 10:00,50.45,79.6,11.56,49.62,9.11
2014-06-18 12:00,,,,,
2014-06-18 14:00,42.24,63.8,11.02,37.89,18.67
2014-06-18 16:00,23.76,346.4,10.96,-5.58,23.09
2014-06-18 17:00,18.77,305.0,11.02,-15.38,10.76
2014-06-18 18:00,,,,,
2014-06-18 20:00,,,,,
2014-06-18 21:00,,,,,
2014-06-18 23:00,,,,,
2014-06-19 00:00,55.43,153.1,11.09,25.10,-49.43
2014-06-19 01:00,34.90,194.6,11.09,-8.78,-33.78
2014-06-19 02:00,32.56,235.0,11.15,-26.67,-18.67
2014-06-19 03:00,34.90,279.7,11.15,-34.41,5.85
2014-06-19 04:00,48.10,294.4,11.15,-43.80,19.89
2014-06-19 05:00,67.75,300.4,11.21,-58.44,34.28
2014-06-19 06:00,78.90,308.8,11.34,-61.46,49.48
2014-06-19 07:00,68.63,312.7,11.34,-50.44,46.55
2014-06-19 08:00,74.50,333.1,11.47,-33.71,66.44
2014-06-19 09:00,38.13,10.3,11.50,6.84,37.51
2014-06-19 10:00,40.48,71.5,11.50,38.39,12.84
2014-06-19 11:00,,,,,
2014-06-19 12:00,,,,,
2014-06-19 14:00,,,,,
2014-06-19 15:00,12.91,204.1,11.37,-5.26,-11.78
2014-06-19 16:00,20.82,276.5,11.44,-20.69,2.35
2014-06-19 17:00,39.01,275.1,11.62,-38.86,3.46
2014-06-19 18:00,59.83,277.9,11.88,-59.27,8.22
2014-06-19 19:00,63.94,273.0,12.03,-63.85,3.32
2014-06-19 20:00,59.83,288.8,12.07,-56.64,19.28
2014-06-19 21:00,,,,,
2014-06-19 22:00,28.16,30.4,11.75,14.24,24.29
2014-06-19 23:00,40.77,74.0,11.78,39.18,11.26
2014-06-20 00:00,81.54,69.0,11.34,76.14,29.16
2014-06-20 01:00,73.03,87.0,11.28,72.93,3.85
2014-06-20 02:00,,,,,
2014-06-20 03:00,,,,,
2014-06-20 04:00,,,,,
2014-06-20 05:00,,,,,
2014-06-20 06:00,47.81,254.7,11.31,-46.11,-12.62
2014-06-20 07:00,86.52,290.6,11.37,-81.02,30.38
2014-06-20 08:00,58.66,313.8,11.34,-42.37,40.57
2014-06-20 09:00,47.51,331.0,11.37,-23.04,41.55
2014-06-20 11:00,26.40,55.7,10.77,21.80,14.88
2014-06-20 12:00,30.50,70.8,10.84,28.81,10.03
2014-06-20 13:00,50.15,82.8,10.68,49.75,6.32
2014-06-20 14:00,32.85,81.4,11.15,32.48,4.94
2014-06-20 15:00,,,,,
2014-06-20 17:00,11.15,292.3,11.34,-10.31,4.23
2014-06-20 18:00,24.64,298.6,11.28,-21.62,11.81
2014-06-20 19:00,74.20,289.1,11.31,-70.10,24.34
2014-06-20 20:00,78.90,300.7,11.15,-67.81,40.34
2014-06-20 21:00,56.31,315.2,11.25,-39.70,39.93
2014-06-20 22:00,43.99,339.8,11.06,-15.21,41.28
2014-06-20 23:00,29.33,27.9,11.02,13.73,25.92
2014-06-21 00:00,48.98,57.1,11.18,41.12,26.61
2014-06-21 01:00,70.69,82.4,10.52,70.07,9.34
2014-06-21 02:00,63.35,93.0,10.61,63.27,-3.26
2014-06-21 03:00,,,,,
2014-06-21 04:00,30.50,155.5,11.09,12.63,-27.77
2014-06-21 05:00,17.30,242.7,11.15,-15.38,-7.93
2014-06-21 06:00,48.39,270.5,11.02,-48.39,0.43
2014-06-21 07:00,69.22,288.8,11.06,-65.53,22.30
2014-06-21 08:00,74.20,286.3,10.90,-71.21,20.87
2014-06-21 09:00,61.89,273.3,10.84,-61.78,3.59
2014-06-21 10:00,57.19,307.4,10.65,-45.42,34.76
2014-06-21 11:00,50.45,340.8,10.84,-16.56,47.65
2014-06-21 12:00,31.09,7.9,10.96,4.26,30.80
2014-06-21 13:00,51.91,61.7,10.74,45.69,24.64
2014-06-21 14:00,,,,,
2014-06-21 15:00,54.26,93.0,11.40,54.19,-2.80
2014-06-21 16:00,,,,,
2014-06-21 17:00,9.39,156.6,11.56,3.73,-8.61
2014-06-21 18:00,18.77,288.8,11.59,-17.77,6.05
2014-06-21 19:00,51.03,301.8,10.46,-43.37,26.90
2014-06-21 20:00,55.73,302.2,10.96,-47.18,29.66
2014-06-21 21:00,66.87,292.3,10.99,-61.87,25.39
2014-06-21 22:00,47.22,300.7,11.18,-40.58,24.14
2014-06-21 23:00,39.89,305.7,10.87,-32.40,23.26
2014-06-22 00:00,22.00,324.7,10.58,-12.72,17.94
2014-06-22 01:00,14.96,24.7,10.58,6.26,13.58
2014-06-22 02:00,39.30,68.3,10.68,36.53,14.51
2014-06-22 03:00,21.70,62.0,10.80,19.17,10.19
2014-06-22 04:00,26.98,65.5,10.80,24.56,11.18
2014-06-22 05:00,17.01,39.9,10.80,10.90,13.06
2014-06-22 06:00,,,,,
2014-06-22 08:00,66.87,310.9,10.77,-50.51,43.82
2014-06-22 09:00,82.71,335.2,10.46,-34.68,75.09
2014-06-22 10:00,55.14,346.4,10.42,-12.95,53.60
2014-06-22 11:00,44.58,333.8,10.23,-19.68,40.00
2014-06-22 12:00,22.88,14.9,10.27,5.88,22.11
2014-06-22 13:00,17.01,67.3,10.14,15.69,6.57
2014-06-22 14:00,61.59,75.7,10.58,59.69,15.19
2014-06-22 15:00,48.39,69.7,11.37,45.40,16.75
2014-06-22 16:00,41.36,86.3,12.10,41.27,2.69
2014-06-22 17:00,25.22,63.8,12.00,22.63,11.15
2014-06-22 18:00,10.85,24.0,12.03,4.42,9.91
2014-06-22 19:00,15.25,327.1,12.16,-8.28,12.81
2014-06-22 20:00,45.17,288.1,12.13,-42.94,14.03
2014-06-22 21:00,75.67,285.3,11.37,-73.00,19.94
2014-06-22 22:00,62.18,292.0,10.90,-57.67,23.25
2014-06-22 23:00,36.66,296.5,11.25,-32.80,16.38
2014-06-23 00:00,16.13,294.4,11.25,-14.69,6.67
2014-06-23 01:00,11.15,274.0,11.06,-11.12,0.78
2014-06-23 02:00,,,,,
2014-06-23 03:00,20.53,139.4,10.58,13.37,-15.58
2014-06-23 04:00,41.36,76.8,10.77,40.26,9.46
2014-06-23 05:00,24.34,72.2,11.09,23.18,7.44
2014-06-23 06:00,16.42,39.5,11.72,10.45,12.67
2014-06-23 07:00,24.93,322.2,11.18,-15.28,19.70
2014-06-23 08:00,33.73,308.1,11.02,-26.53,20.83
2014-06-23 09:00,50.45,292.0,11.21,-46.79,18.87
2014-06-23 10:00,77.14,315.9,10.71,-53.71,55.37
2014-06-23 11:00,34.02,322.9,10.65,-20.52,27.14
2014-06-23 12:00,15.25,7.9,10.74,2.09,15.11
2014-06-23 13:00,17.30,112.6,10.71,15.97,-6.66
2014-06-23 14:00,,,,,
2014-06-23 16:00,31.38,136.6,11.02,21.58,-22.78
2014-06-23 17:00,26.10,101.4,11.91,25.59,-5.16
2014-06-23 18:00,8.21,120.4,11.66,7.08,-4.15
2014-06-23 19:00,13.79,251.9,11.85,-13.10,-4.29
2014-06-23 20:00,31.97,264.9,11.72,-31.84,-2.85
2014-06-23 21:00,67.46,276.1,12.35,-67.07,7.21
2014-06-23 22:00,90.04,303.9,12.73,-74.72,50.24
2014-06-23 23:00,52.50,315.9,14.40,-36.56,37.68
2014-06-24 00:00,35.49,349.9,14.68,-6.20,34.94
2014-06-24 01:00,24.64,87.7,14.37,24.62,1.00
2014-06-24 02:00,37.84,126.0,12.76,30.61,-22.24
2014-06-24 03:00,42.24,145.3,12.41,24.02,-34.74
2014-06-24 04:00,,,,,
2014-06-24 05:00,48.39,103.2,12.00,47.13,-11.01
2014-06-24 06:00,55.73,114.1,12.00,50.89,-22.71
2014-06-24 07:00,25.81,136.2,11.44,17.86,-18.63
2014-06-24 08:00,22.88,233.2,11.53,-18.33,-13.69
2014-06-24 09:00,51.33,288.8,13.29,-48.59,16.54
2014-06-24 10:00,78.31,290.2,13.64,-73.49,27.04
2014-06-24 11:00,56.61,312.4,14.14,-41.83,38.14
2014-06-24 12:00,32.26,329.9,14.37,-16.16,27.92
2014-06-24 14:00,31.38,34.6,13.67,17.82,25.84